Regional Weather Roundup
Issued by NWS

Home | Current Version | Previous Version | Graphics & Text | Print | Product List | Glossary On
Versions: 1 2 3 4 5 6 7 8 9 10 11 12 13 14 15 16 17 18 19 20 21 22 23 24 25 26 27 28
000
ASUS45 KSLC 200610
RWRUT

UTAH REGIONAL WEATHER ROUNDUP
NATIONAL WEATHER SERVICE SALT LAKE CITY UT
1100 PM MST FRI JAN 19 2018

UTZ001>011-023>025-200700-

NORTHERN UTAH

CITY           SKY/WX    TMP DP  RH WIND       PRES   REMARKS
BRIGHAM CITY   CLOUDY    32  30  92 CALM      29.97S
HILL AFB       LGT SNOW  29  29  99 NW12      29.94S FOG     WCI  20
LOGAN          LGT SNOW  34  31  88 S7        29.96R FOG     WCI  28
OGDEN          LGT SNOW  31  29  92 NW8       29.95S FOG     WCI  23
SALT LAKE CITY LGT SNOW  34  32  92 NW10      29.96S VSB 1   WCI  26
TOOELE VALLEY  LGT SNOW  32  32 100 N8        29.97F VSB 1   WCI  25
WENDOVER       LGT SNOW  30  28  92 SE3       29.98S FOG
HEBER CITY     LGT SNOW  32  28  86 NE6       29.87S WCI  26
WEST JORDAN    CLOUDY    30  30 100 NW13      29.96S WCI  20

$$

UTZ011>015-024>027-200700-

CENTRAL/NORTHEAST UTAH

CITY           SKY/WX    TMP DP  RH WIND       PRES   REMARKS
PROVO AIRPORT  FLURRIES  32  31  96 NW17      29.93F WCI  21
MOAB/CANYONLAN CLOUDY    34  26  72 NW3       29.82F
DELTA          CLOUDY    32  32 100 N13       29.90S WCI  22
PRICE          MOCLDY    30  22  72 N6        29.83F WCI  24
ROOSEVELT      PTCLDY    25  19  80 W3        29.84F
VERNAL         PTCLDY    26  17  68 W7        29.83S WCI  18

$$

UTZ013>016-019>022-027-200700-

SOUTHERN UTAH

CITY           SKY/WX    TMP DP  RH WIND       PRES   REMARKS
BRYCE CANYON   CLOUDY    40  27  59 S9        29.90F WCI  34
CEDAR CITY     CLOUDY    46  28  49 SW10      29.83R
MILFORD        CLOUDY    35  28  75 N24       29.85R WCI  23
ST GEORGE      MOCLDY    54  34  46 S5        29.81S
HANKSVILLE     MOCLDY    39  19  45 CALM      29.85S
BLANDING         N/A     40  17  40 E5        29.98S

$$

REGIONAL REPORTS     COLORADO/ARIZONA

CITY           SKY/WX    TMP DP  RH WIND       PRES   REMARKS
CRAIG, CO      CLEAR     30  23  75 SE5       29.83S WCI  25
GRAND JUNCTION PTCLDY    31  21  66 CALM      29.84F
RIFLE, CO      PTCLDY    29  23  78 E3        29.87F
MONTROSE, CO   MOCLDY    47  21  35 E3        29.88F
CORTEZ, CO     CLEAR     26  19  74 CALM      29.95S
COLORADO CITY  MOCLDY    43  32  65 CALM      29.90S
PAGE, AZ       PTCLDY    48  25  40 CALM      29.84S
GRAND CANYON   PTCLDY    40  21  46 SW9       29.96S WCI  34
KINGMAN, AZ    CLOUDY    57  26  30 S10       29.85S
FLAGSTAFF, AZ  CLEAR     30  16  56 CALM      29.98F

$$

REGIONAL REPORTS    NEVADA/IDAHO/WYOMING

CITY           SKY/WX    TMP DP  RH WIND       PRES   REMARKS
LAS VEGAS, NV  MOCLDY    60  38  43 S7        29.77S
ELY, NY        SNOW      25  23  92 N14       29.90S VSB 1/2 WCI  13
ELKO, NV       CLOUDY    29  27  92 NE5       29.94R WCI  24
POCATELLO, ID  CLOUDY    33  25  72 SW18      29.93R WCI  22
BURLEY, ID     CLOUDY    33  25  72 SW12G21   29.94R WCI  24
EVANSTON, WY   FOG       24  22  91 NE9       29.89R VSB 1   WCI  14
ROCK SPRINGS,  CLOUDY    28  23  81 W13       29.86R WCI  17

$$




USA.gov is the U.S. government's official web portal to all federal, state and local government web resources and services.